Change the Weather History Date:

Saturday, November 3, 2012

  Actual Average Record
Temperature  
Mean Temperature 54 °F 49 °F  
Max Temperature 56 °F 56 °F 73 °F (2010)
Min Temperature 52 °F 42 °F 27 °F (2003)
Degree Days  
Heating Degree Days 11 16  
Month to date heating degree days 36 47  
Since 1 July heating degree days 933 914  
Cooling Degree Days 0 0  
Month to date cooling degree days 0 0  
Year to date cooling degree days 25 12  
Growing Degree Days 4 (Base 50)    
Moisture  
Dew Point 55 °F    
Average Humidity 97    
Maximum Humidity 100    
Minimum Humidity 93    
Precipitation  
Precipitation 0.21 in 0.31 in 2.65 in (1893)
Month to date precipitation 0.81 0.91  
Year to date precipitation 63.69 47.13  
Snow  
Snow 0.00 in - - ()
Month to date snowfall 0.0  
Snow Depth 0.00 in    
Sea Level Pressure  
Sea Level Pressure 30.07 in    
Wind  
Wind Speed 8 mph (South)    
Max Wind Speed 18 mph    
Max Gust Speed 29 mph    
Visibility 4 miles    
Events Rain    
T = Trace of Precipitation, MM = Missing Value Source: NWS Daily Summary

Daily Weather History Graph

Daily Weather History Graph

Search for Another Location

Airport or City:

Trip Planner

Search our weather history database for the weather conditions in past years. The results will help you decide how hot, cold, wet, or windy it might be!

Date:

Astronomy

Nov. 03, 2012 Rise Set
Actual Time 8:00 AM PDT 5:57 PM PDT
Civil Twilight 7:28 AM PDT 6:28 PM PDT
Nautical Twilight 6:53 AM PDT 7:04 PM PDT
Astronomical Twilight 6:18 AM PDT 7:39 PM PDT
Moon 9:38 PM PDT (11/3) 12:13 PM PDT (11/3)
Length of Visible Light 11h 00m
Length of Day
9h 57m
Waning Gibbous, 79% of the Moon is Illuminated
Nov 3
Waning Gibbous
Nov 6
Last Quarter
Nov 13
New
Nov 20
First Quarter
Nov 28
Full

Hourly Weather History & Observations

Time (PDT) Temp. Dew Point Humidity Pressure Visibility Wind Dir Wind Speed Gust Speed Precip Events Conditions
12:55 AM 52.0 °F 52.0 °F 100% 29.95 in 10.0 mi East 5.8 mph - 0.00 in   Overcast
1:36 AM 51.8 °F 51.8 °F 100% 29.96 in 2.0 mi East 5.8 mph - 0.01 in Rain Light Rain
1:48 AM 51.8 °F 51.8 °F 100% 29.96 in 3.0 mi East 5.8 mph - 0.02 in Rain Light Rain
1:55 AM 52.0 °F 52.0 °F 100% 29.96 in 2.0 mi East 5.8 mph - 0.03 in Rain Light Rain
2:05 AM 51.8 °F 51.8 °F 100% 29.96 in 3.0 mi East 5.8 mph - 0.01 in Rain Light Rain
2:13 AM 51.8 °F 51.8 °F 100% 29.96 in 4.0 mi East 4.6 mph - 0.01 in Rain Light Rain
2:55 AM 52.0 °F 52.0 °F 100% 29.97 in 4.0 mi Calm Calm - 0.02 in   Overcast
3:55 AM 53.1 °F 53.1 °F 100% 29.97 in 6.0 mi South 4.6 mph - N/A   Overcast
4:55 AM 54.0 °F 53.1 °F 97% 29.99 in 10.0 mi South 5.8 mph - N/A   Overcast
5:55 AM 54.0 °F 53.1 °F 97% 29.99 in 10.0 mi South 10.4 mph - N/A   Overcast
6:28 AM 53.6 °F 53.6 °F 100% 29.99 in 7.0 mi South 8.1 mph - N/A   Overcast
6:55 AM 54.0 °F 54.0 °F 100% 30.00 in 6.0 mi South 5.8 mph - N/A   Overcast
7:55 AM 55.0 °F 54.0 °F 96% 30.01 in 4.0 mi South 10.4 mph - N/A   Overcast
8:39 AM 55.4 °F 53.6 °F 94% 30.01 in 8.0 mi South 13.8 mph 19.6 mph N/A   Overcast
8:55 AM 55.0 °F 54.0 °F 96% 30.02 in 8.0 mi South 10.4 mph - N/A   Overcast
9:03 AM 55.4 °F 55.4 °F 100% 30.03 in 6.0 mi South 8.1 mph - N/A   Overcast
9:28 AM 55.4 °F 55.4 °F 100% 30.04 in 6.0 mi South 11.5 mph - N/A   Overcast
9:40 AM 55.4 °F 55.4 °F 100% 30.04 in 2.5 mi SSW 11.5 mph - 0.00 in Rain Light Rain
9:48 AM 55.4 °F 53.6 °F 94% 30.04 in 1.2 mi SSW 12.7 mph 20.7 mph 0.00 in Rain Light Rain
9:55 AM 55.0 °F 55.0 °F 100% 30.04 in 1.0 mi SSW 11.5 mph 20.7 mph 0.01 in Rain Light Rain
10:15 AM 55.4 °F 55.4 °F 100% 30.04 in 1.5 mi South 10.4 mph 20.7 mph 0.00 in Rain Light Rain
10:24 AM 55.4 °F 55.4 °F 100% 30.04 in 1.5 mi South 11.5 mph - 0.00 in Rain Light Rain
10:28 AM 55.4 °F 55.4 °F 100% 30.05 in 2.0 mi SSW 9.2 mph - 0.00 in Rain Light Rain
10:42 AM 55.4 °F 55.4 °F 100% 30.06 in 3.0 mi South 12.7 mph 21.9 mph 0.00 in   Overcast
10:55 AM 55.0 °F 55.0 °F 100% 30.06 in 2.0 mi SSW 12.7 mph 17.3 mph 0.00 in   Overcast
11:02 AM 55.4 °F 55.4 °F 100% 30.06 in 1.2 mi South 10.4 mph - 0.00 in Rain Light Rain
11:19 AM 55.4 °F 55.4 °F 100% 30.06 in 1.5 mi South 12.7 mph 19.6 mph 0.01 in Rain Light Rain
11:38 AM 55.4 °F 55.4 °F 100% 30.06 in 2.5 mi South 10.4 mph 18.4 mph 0.01 in   Overcast
11:45 AM 55.4 °F 55.4 °F 100% 30.06 in 1.2 mi South 15.0 mph - 0.01 in Rain Light Rain
11:53 AM 55.4 °F 55.4 °F 100% 30.06 in 2.0 mi South 11.5 mph 19.6 mph 0.01 in Rain Light Rain
11:55 AM 55.9 °F 55.0 °F 97% 30.06 in 3.0 mi South 10.4 mph 19.6 mph 0.01 in   Overcast
12:14 PM 55.4 °F 55.4 °F 100% 30.07 in 1.8 mi South 9.2 mph 20.7 mph 0.00 in Rain Light Rain
12:27 PM 55.4 °F 55.4 °F 100% 30.07 in 3.0 mi South 11.5 mph 19.6 mph 0.01 in Rain Light Rain
12:55 PM 55.9 °F 55.9 °F 100% 30.08 in 6.0 mi SSW 11.5 mph 20.7 mph 0.01 in Rain Light Rain
1:10 PM 55.4 °F 55.4 °F 100% 30.08 in 1.8 mi South 9.2 mph 18.4 mph 0.01 in Rain Rain
1:18 PM 55.4 °F 55.4 °F 100% 30.08 in 2.5 mi SSW 10.4 mph 20.7 mph 0.01 in Rain Light Rain
1:55 PM 55.9 °F 55.0 °F 97% 30.09 in 3.0 mi SSW 19.6 mph 26.5 mph 0.03 in Rain Light Rain
2:08 PM 55.4 °F 55.4 °F 100% 30.09 in 1.8 mi SSW 16.1 mph 24.2 mph 0.01 in Rain Light Rain
2:16 PM 55.4 °F 55.4 °F 100% 30.10 in 2.0 mi SSW 13.8 mph 25.3 mph 0.01 in Rain Light Rain
2:29 PM 55.4 °F 55.4 °F 100% 30.10 in 6.0 mi SSW 11.5 mph 24.2 mph 0.01 in   Overcast
2:55 PM 55.9 °F 55.0 °F 97% 30.10 in 10.0 mi SSW 15.0 mph 28.8 mph 0.01 in   Overcast
3:55 PM 55.0 °F 55.0 °F 100% 30.12 in 3.0 mi SSW 13.8 mph 24.2 mph N/A   Overcast
4:04 PM 55.4 °F 55.4 °F 100% 30.12 in 2.0 mi South 15.0 mph 21.9 mph N/A   Overcast
4:27 PM 55.4 °F 55.4 °F 100% 30.12 in 4.0 mi SSW 13.8 mph - N/A   Overcast
4:55 PM 55.0 °F 55.0 °F 100% 30.12 in 9.0 mi SSW 11.5 mph 19.6 mph N/A   Overcast
5:38 PM 55.4 °F 55.4 °F 100% 30.13 in 2.5 mi SSW 13.8 mph 18.4 mph N/A   Overcast
5:47 PM 55.4 °F 55.4 °F 100% 30.13 in 3.0 mi SSW 11.5 mph 18.4 mph N/A   Overcast
5:55 PM 55.0 °F 55.0 °F 100% 30.13 in 5.0 mi SW 12.7 mph - N/A   Overcast
6:55 PM 55.0 °F 55.0 °F 100% 30.14 in 10.0 mi SSW 9.2 mph - 0.00 in   Overcast
7:55 PM 55.9 °F 55.0 °F 97% 30.14 in 4.0 mi SW 5.8 mph - 0.00 in Rain Light Rain
8:05 PM 55.4 °F 55.4 °F 100% 30.14 in 2.0 mi SW 3.5 mph - 0.02 in Rain Light Rain
8:14 PM 55.4 °F 55.4 °F 100% 30.13 in 2.5 mi SSW 4.6 mph - 0.03 in Rain Light Rain
8:17 PM 55.4 °F 55.4 °F 100% 30.13 in 3.0 mi SSW 4.6 mph - 0.03 in Rain Light Rain
8:32 PM 55.4 °F 55.4 °F 100% 30.13 in 1.8 mi SSW 5.8 mph - 0.06 in Rain Rain
8:43 PM 55.4 °F 55.4 °F 100% 30.13 in 2.5 mi SSW 6.9 mph - 0.08 in Rain Light Rain
8:52 PM 55.4 °F 55.4 °F 100% 30.14 in 5.0 mi SSE 3.5 mph - 0.09 in Rain Light Rain
8:55 PM 55.9 °F 55.9 °F 100% 30.14 in 6.0 mi SSE 3.5 mph - 0.09 in Rain Light Rain
9:55 PM 55.9 °F 55.9 °F 100% 30.14 in 6.0 mi Calm Calm - 0.00 in   Overcast
10:55 PM 55.0 °F 55.0 °F 100% 30.15 in 10.0 mi SE 3.5 mph - N/A   Overcast
11:23 PM 55.4 °F 55.4 °F 100% 30.16 in 10.0 mi Calm Calm - N/A   Overcast
11:55 PM 55.0 °F 55.0 °F 100% 30.15 in 8.0 mi Calm Calm - N/A   Overcast